Mountain Home, AR

6:29 PM CST on December 07, 2019 (GMT -0600)
Baxter County Regional

Weather History for KBPK - October, 2019

Change the Weather History Date:

Monday, October 14, 2019

  Actual Average (WUND) Record (WUND)
Temperature  
Mean Temperature 58 °F -  
Max Temperature 73 °F - - (-1)
Min Temperature 43 °F - - (-1)
Degree Days  
Heating Degree Days 7    
Growing Degree Days 8 (Base 50)    
Moisture  
Dew Point 46 °F    
Average Humidity 72    
Maximum Humidity 97    
Minimum Humidity 33    
Precipitation  
Precipitation 0.00 in - - ()
Sea Level Pressure  
Sea Level Pressure 30.03 in    
Wind  
Wind Speed 3 mph (SSE)    
Max Wind Speed 10 mph    
Max Gust Speed -    
Visibility 10 miles    
Events      
Averages and records for this station are not official NWS values.
T = Trace of Precipitation, MM = Missing Value Source: NWS Daily Summary

Daily Weather History Graph

Daily Weather History Graph

Search for Another Location

Airport or City:

Astronomy

Oct. 14, 2019 Rise Set
Actual Time 7:15 AM CDT 6:35 PM CDT
Civil Twilight 6:50 AM CDT 7:01 PM CDT
Nautical Twilight 6:20 AM CDT 7:31 PM CDT
Astronomical Twilight 5:50 AM CDT 8:00 PM CDT
Moon 7:26 PM CDT (10/14) 7:48 AM CDT (10/14)
Length of Visible Light 12h 11m
Length of Day
11h 19m
Full, 99% of the Moon is Illuminated
Oct 14
Full
Oct 21
Last Quarter
Oct 27
New
Nov 4
First Quarter
Nov 12
Full

Hourly Weather History & Observations

Time (CDT) Temp. Windchill Dew Point Humidity Pressure Visibility Wind Dir Wind Speed Gust Speed Precip Events Conditions
12:53 AM 46.9 °F - 43.0 °F 86% 30.03 in 10.0 mi SW 3.5 mph - N/A   Clear
1:53 AM 46.9 °F - 43.0 °F 86% 30.03 in 10.0 mi Calm Calm - N/A   Clear
2:53 AM 45.0 °F 43.5 °F 43.0 °F 93% 30.04 in 10.0 mi SSW 3.5 mph - N/A   Clear
3:53 AM 44.1 °F - 42.1 °F 93% 30.04 in 10.0 mi Calm Calm - N/A   Clear
4:53 AM 44.1 °F - 42.1 °F 93% 30.04 in 10.0 mi Calm Calm - N/A   Clear
5:53 AM 43.0 °F - 42.1 °F 97% 30.06 in 10.0 mi Calm Calm - N/A   Clear
6:53 AM 43.0 °F 41.3 °F 42.1 °F 97% 30.08 in 10.0 mi East 3.5 mph - N/A   Clear
7:53 AM 45.0 °F 42.6 °F 44.1 °F 97% 30.08 in 10.0 mi East 4.6 mph - N/A   Clear
8:53 AM 48.9 °F - 46.9 °F 93% 30.10 in 10.0 mi Calm Calm - N/A   Clear
9:53 AM 55.9 °F - 46.9 °F 72% 30.10 in 10.0 mi Calm Calm - N/A   Clear
11:53 AM 68.0 °F - 48.9 °F 50% 30.07 in 10.0 mi Variable 4.6 mph - N/A   Clear
1:53 PM 73.0 °F - 42.1 °F 33% 30.02 in 10.0 mi SSE 10.4 mph - N/A   Clear
2:53 PM 73.0 °F - 46.0 °F 38% 30.00 in 10.0 mi South 9.2 mph - N/A   Clear
3:53 PM 72.0 °F - 46.9 °F 41% 30.00 in 10.0 mi South 8.1 mph - N/A   Clear
4:53 PM 70.0 °F - 46.9 °F 44% 29.99 in 10.0 mi SSE 9.2 mph - N/A   Clear
5:53 PM 68.0 °F - 46.9 °F 47% 30.00 in 10.0 mi South 6.9 mph - N/A   Clear
6:53 PM 63.0 °F - 46.0 °F 54% 29.99 in 10.0 mi SSE 4.6 mph - N/A   Clear
7:53 PM 60.1 °F - 48.9 °F 67% 30.00 in 10.0 mi SSE 5.8 mph - N/A   Clear
8:53 PM 57.9 °F - 48.9 °F 72% 30.01 in 10.0 mi SSE 3.5 mph - N/A   Clear
9:53 PM 55.9 °F - 48.0 °F 75% 30.01 in 10.0 mi South 4.6 mph - N/A   Clear
10:53 PM 55.0 °F - 48.9 °F 80% 30.00 in 10.0 mi South 4.6 mph - N/A   Clear
11:53 PM 55.9 °F - 50.0 °F 80% 30.00 in 10.0 mi SSW 6.9 mph - N/A   Partly Cloudy